| time (UTC) | temp C | wind direction | speed KPH | gust KPH | rain 1hr cm | rain 24hr cm | rain mn cm | humidity % | barometer mb |
| 20260507183514 | 22 | 298 | 9.7 | 19.3 | 0.00 | 0.00 | 0.00 | 68 | 1016.9 |
| 20260507183028 | 22 | 317 | 8.0 | 19.3 | 0.00 | 0.00 | 0.00 | 68 | 1017.0 |
| 20260507182512 | 21 | 277 | 6.4 | 19.3 | 0.00 | 0.00 | 0.00 | 69 | 1017.0 |
| 20260507182014 | 21 | 346 | 8.0 | 17.7 | 0.00 | 0.00 | 0.00 | 67 | 1017.1 |
| 20260507181530 | 21 | 275 | 4.8 | 14.5 | 0.00 | 0.00 | 0.00 | 67 | 1017.1 |
| 20260507181017 | 21 | 293 | 4.8 | 14.5 | 0.00 | 0.00 | 0.00 | 69 | 1017.2 |
| 20260507180512 | 21 | 304 | 4.8 | 16.1 | 0.00 | 0.00 | 0.00 | 68 | 1017.2 |
| 20260507180030 | 21 | 236 | 6.4 | 16.1 | 0.00 | 0.00 | 0.00 | 70 | 1017.2 |
| 20260507175522 | 20 | 59 | 6.4 | 16.1 | 0.00 | 0.00 | 0.00 | 70 | 1017.3 |
| 20260507175011 | 20 | 297 | 6.4 | 16.1 | 0.00 | 0.00 | 0.00 | 71 | 1017.3 |
| 20260507174543 | 20 | 312 | 6.4 | 14.5 | 0.00 | 0.00 | 0.00 | 72 | 1017.2 |
| 20260507174018 | 20 | 297 | 6.4 | 14.5 | 0.00 | 0.00 | 0.00 | 73 | 1017.3 |
| 20260507173514 | 20 | 323 | 3.2 | 16.1 | 0.00 | 0.00 | 0.00 | 72 | 1017.3 |
| 20260507173030 | 20 | 336 | 4.8 | 16.1 | 0.00 | 0.00 | 0.00 | 71 | 1017.4 |
| 20260507172512 | 20 | 265 | 4.8 | 16.1 | 0.00 | 0.00 | 0.00 | 71 | 1017.4 |
| 20260507172019 | 20 | 245 | 1.6 | 11.3 | 0.00 | 0.00 | 0.00 | 71 | 1017.4 |
| 20260507171541 | 21 | 215 | 3.2 | 11.3 | 0.00 | 0.00 | 0.00 | 70 | 1017.4 |
| 20260507171012 | 20 | 219 | 3.2 | 9.7 | 0.00 | 0.00 | 0.00 | 73 | 1017.4 |
| 20260507170515 | 19 | 247 | 1.6 | 12.9 | 0.00 | 0.00 | 0.00 | 74 | 1017.5 |
| 20260507170028 | 19 | 221 | 4.8 | 12.9 | 0.00 | 0.00 | 0.00 | 75 | 1017.6 |
| 20260507165518 | 18 | 273 | 4.8 | 11.3 | 0.00 | 0.00 | 0.00 | 76 | 1017.5 |
| 20260507165015 | 18 | 225 | 3.2 | 9.7 | 0.00 | 0.00 | 0.00 | 76 | 1017.4 |
| 20260507164528 | 18 | 265 | 3.2 | 9.7 | 0.00 | 0.00 | 0.00 | 78 | 1017.4 |
| 20260507164014 | 17 | 9 | 3.2 | 9.7 | 0.00 | 0.00 | 0.00 | 79 | 1017.6 |
| 20260507163514 | 17 | 9 | 3.2 | 9.7 | 0.00 | 0.00 | 0.00 | 80 | 1017.7 |
| 20260507163029 | 17 | 0 | 1.6 | 11.3 | 0.00 | 0.00 | 0.00 | 80 | 1017.7 |
| 20260507162514 | 17 | 277 | 3.2 | 11.3 | 0.00 | 0.00 | 0.00 | 81 | 1017.9 |
| 20260507162013 | 17 | 93 | 4.8 | 12.9 | 0.00 | 0.00 | 0.00 | 81 | 1017.9 |
| 20260507161529 | 16 | 293 | 4.8 | 12.9 | 0.00 | 0.00 | 0.00 | 82 | 1017.8 |
| 20260507161013 | 16 | 67 | 0.0 | 6.4 | 0.00 | 0.00 | 0.00 | 84 | 1017.8 |
| 20260507160512 | 16 | 0 | 1.6 | 11.3 | 0.00 | 0.00 | 0.00 | 83 | 1017.8 |
| 20260507160031 | 16 | 238 | 4.8 | 11.3 | 0.00 | 0.00 | 0.00 | 83 | 1017.8 |
| 20260507155511 | 16 | 212 | 1.6 | 9.7 | 0.00 | 0.00 | 0.00 | 85 | 1017.9 |
| 20260507155014 | 16 | 313 | 3.2 | 9.7 | 0.00 | 0.00 | 0.00 | 84 | 1017.9 |
| 20260507154528 | 16 | 265 | 1.6 | 8.0 | 0.00 | 0.00 | 0.00 | 85 | 1018.0 |
| 20260507154013 | 15 | 309 | 1.6 | 8.0 | 0.00 | 0.00 | 0.00 | 86 | 1017.8 |
| 20260507153513 | 15 | 65 | 1.6 | 8.0 | 0.00 | 0.00 | 0.00 | 88 | 1017.8 |
| 20260507153029 | 15 | 119 | 1.6 | 4.8 | 0.00 | 0.00 | 0.00 | 89 | 1017.7 |
| 20260507152512 | 14 | 59 | 1.6 | 6.4 | 0.00 | 0.00 | 0.00 | 90 | 1017.9 |
| 20260507152011 | 14 | 41 | 3.2 | 9.7 | 0.00 | 0.00 | 0.00 | 90 | 1017.8 |
| 20260507151528 | 14 | 0 | 0.0 | 11.3 | 0.00 | 0.00 | 0.00 | 91 | 1017.9 |
| 20260507151011 | 13 | 241 | 4.8 | 11.3 | 0.00 | 0.00 | 0.00 | 91 | 1017.8 |
| 20260507150512 | 13 | 270 | 1.6 | 6.4 | 0.00 | 0.00 | 0.00 | 91 | 1017.8 |
| 20260507150036 | 13 | 119 | 1.6 | 4.8 | 0.00 | 0.00 | 0.00 | 91 | 1017.7 |
| 20260507145513 | 13 | 65 | 1.6 | 4.8 | 0.00 | 0.00 | 0.00 | 91 | 1017.6 |
| 20260507145018 | 13 | 9 | 1.6 | 4.8 | 0.00 | 0.00 | 0.00 | 91 | 1017.7 |
| 20260507144530 | 13 | 0 | 0.0 | 4.8 | 0.00 | 0.00 | 0.00 | 91 | 1017.7 |
| 20260507144013 | 13 | 111 | 1.6 | 6.4 | 0.00 | 0.00 | 0.00 | 91 | 1017.7 |
| 20260507143512 | 13 | 67 | 1.6 | 8.0 | 0.00 | 0.00 | 0.00 | 91 | 1017.6 |
| 20260507143029 | 13 | 111 | 1.6 | 8.0 | 0.00 | 0.00 | 0.00 | 91 | 1017.6 |
| 20260507142513 | 13 | 0 | 1.6 | 4.8 | 0.00 | 0.00 | 0.00 | 91 | 1017.6 |
| 20260507142011 | 13 | 126 | 1.6 | 3.2 | 0.00 | 0.00 | 0.00 | 91 | 1017.5 |
| 20260507141531 | 13 | 0 | 0.0 | 3.2 | 0.00 | 0.00 | 0.00 | 91 | 1017.4 |
| 20260507141018 | 13 | 0 | 0.0 | 3.2 | 0.00 | 0.00 | 0.00 | 91 | 1017.5 |
| 20260507140514 | 13 | 137 | 0.0 | 4.8 | 0.00 | 0.00 | 0.00 | 91 | 1017.4 |
| 20260507140037 | 12 | 165 | 1.6 | 4.8 | 0.00 | 0.00 | 0.00 | 91 | 1017.4 |
| 20260507135513 | 12 | 205 | 1.6 | 3.2 | 0.00 | 0.00 | 0.00 | 91 | 1017.4 |
| 20260507135016 | 12 | 196 | 1.6 | 4.8 | 0.00 | 0.00 | 0.00 | 91 | 1017.3 |
| 20260507134530 | 12 | 153 | 1.6 | 4.8 | 0.00 | 0.00 | 0.00 | 91 | 1017.3 |
| 20260507134012 | 12 | 178 | 1.6 | 4.8 | 0.00 | 0.00 | 0.00 | 91 | 1017.1 |
| 20260507133513 | 12 | 129 | 1.6 | 4.8 | 0.00 | 0.00 | 0.00 | 91 | 1017.3 |
| 20260507133033 | 12 | 141 | 1.6 | 4.8 | 0.00 | 0.00 | 0.00 | 91 | 1017.2 |
| 20260507132510 | 12 | 128 | 3.2 | 4.8 | 0.00 | 0.00 | 0.00 | 91 | 1017.2 |
| 20260507132013 | 12 | 132 | 1.6 | 4.8 | 0.00 | 0.00 | 0.00 | 91 | 1017.2 |
| 20260507131555 | 12 | 142 | 3.2 | 4.8 | 0.00 | 0.00 | 0.00 | 91 | 1017.3 |
| 20260507131014 | 12 | 144 | 3.2 | 6.4 | 0.00 | 0.00 | 0.00 | 91 | 1017.1 |
| 20260507130514 | 12 | 146 | 0.0 | 6.4 | 0.00 | 0.00 | 0.00 | 92 | 1017.1 |
| 20260507130029 | 12 | 137 | 1.6 | 4.8 | 0.00 | 0.00 | 0.00 | 92 | 1017.1 |
| 20260507125514 | 12 | 93 | 1.6 | 4.8 | 0.00 | 0.00 | 0.00 | 92 | 1017.1 |
| 20260507125014 | 12 | 149 | 1.6 | 4.8 | 0.00 | 0.00 | 0.00 | 92 | 1017.0 |
| 20260507124531 | 12 | 123 | 1.6 | 6.4 | 0.00 | 0.00 | 0.00 | 92 | 1017.0 |
| 20260507124014 | 12 | 141 | 3.2 | 6.4 | 0.00 | 0.00 | 0.00 | 92 | 1017.0 |
| 20260507123515 | 11 | 119 | 0.0 | 6.4 | 0.00 | 0.00 | 0.00 | 92 | 1016.8 |
| 20260507123040 | 12 | 119 | 3.2 | 6.4 | 0.00 | 0.00 | 0.00 | 92 | 1016.8 |
| 20260507122518 | 12 | 129 | 3.2 | 6.4 | 0.00 | 0.00 | 0.00 | 92 | 1016.8 |
| 20260507122014 | 12 | 124 | 3.2 | 6.4 | 0.00 | 0.00 | 0.00 | 92 | 1016.8 |
| 20260507121528 | 12 | 132 | 3.2 | 6.4 | 0.00 | 0.00 | 0.00 | 92 | 1016.9 |
| 20260507121013 | 12 | 140 | 3.2 | 6.4 | 0.00 | 0.00 | 0.00 | 92 | 1016.8 |
| 20260507120515 | 12 | 137 | 3.2 | 8.0 | 0.00 | 0.00 | 0.00 | 93 | 1016.8 |
| 20260507120031 | 12 | 144 | 3.2 | 8.0 | 0.00 | 0.00 | 0.00 | 93 | 1016.7 |
| 20260507115513 | 11 | 153 | 3.2 | 8.0 | 0.00 | 0.00 | 0.00 | 93 | 1016.8 |
| 20260507115013 | 12 | 153 | 1.6 | 6.4 | 0.00 | 0.00 | 0.00 | 93 | 1016.8 |
| 20260507114529 | 11 | 137 | 3.2 | 6.4 | 0.00 | 0.00 | 0.00 | 93 | 1016.8 |
| 20260507114018 | 11 | 133 | 3.2 | 6.4 | 0.00 | 0.00 | 0.00 | 93 | 1016.7 |
| 20260507113513 | 11 | 124 | 3.2 | 4.8 | 0.00 | 0.00 | 0.00 | 93 | 1016.7 |
| 20260507113059 | 11 | 115 | 0.0 | 6.4 | 0.00 | 0.00 | 0.00 | 92 | 1016.8 |
| 20260507112518 | 11 | 93 | 1.6 | 6.4 | 0.00 | 0.00 | 0.00 | 92 | 1016.8 |
| 20260507112013 | 12 | 108 | 3.2 | 6.4 | 0.00 | 0.00 | 0.00 | 92 | 1016.7 |
| 20260507111532 | 12 | 137 | 3.2 | 6.4 | 0.00 | 0.00 | 0.00 | 92 | 1016.8 |
| 20260507111012 | 12 | 126 | 0.0 | 4.8 | 0.00 | 0.00 | 0.00 | 92 | 1016.8 |
| 20260507110512 | 12 | 126 | 1.6 | 4.8 | 0.00 | 0.00 | 0.00 | 92 | 1016.9 |
| 20260507110037 | 12 | 133 | 3.2 | 4.8 | 0.00 | 0.00 | 0.00 | 92 | 1016.9 |
| 20260507105515 | 12 | 124 | 3.2 | 4.8 | 0.00 | 0.00 | 0.00 | 92 | 1017.0 |
| 20260507105012 | 12 | 137 | 1.6 | 4.8 | 0.00 | 0.00 | 0.00 | 92 | 1017.0 |
| 20260507104528 | 12 | 93 | 0.0 | 4.8 | 0.00 | 0.00 | 0.00 | 92 | 1017.0 |
| 20260507104015 | 12 | 126 | 0.0 | 4.8 | 0.00 | 0.00 | 0.00 | 92 | 1017.0 |
| 20260507103515 | 12 | 119 | 1.6 | 4.8 | 0.00 | 0.00 | 0.00 | 92 | 1016.9 |
| 20260507103029 | 12 | 93 | 0.0 | 3.2 | 0.00 | 0.00 | 0.00 | 92 | 1017.1 |
| 20260507102513 | 12 | 119 | 1.6 | 3.2 | 0.00 | 0.00 | 0.00 | 92 | 1017.1 |
| 20260507102015 | 12 | 0 | 0.0 | 4.8 | 0.00 | 0.00 | 0.00 | 92 | 1017.1 |
| 20260507101531 | 12 | 129 | 0.0 | 4.8 | 0.00 | 0.00 | 0.00 | 92 | 1017.2 |
| 20260507101013 | 12 | 178 | 1.6 | 4.8 | 0.00 | 0.00 | 0.00 | 92 | 1017.3 |
| 20260507100512 | 12 | 126 | 1.6 | 4.8 | 0.00 | 0.00 | 0.00 | 92 | 1017.2 |
| 20260507100042 | 12 | 119 | 0.0 | 3.2 | 0.00 | 0.00 | 0.00 | 92 | 1017.3 |
| 20260507095514 | 12 | 51 | 0.0 | 3.2 | 0.00 | 0.00 | 0.00 | 92 | 1017.3 |
| 20260507095014 | 12 | 0 | 1.6 | 4.8 | 0.00 | 0.00 | 0.00 | 92 | 1017.3 |
| 20260507094531 | 12 | 0 | 0.0 | 4.8 | 0.00 | 0.00 | 0.00 | 92 | 1017.3 |
| 20260507094012 | 12 | 108 | 1.6 | 4.8 | 0.00 | 0.00 | 0.00 | 92 | 1017.4 |
| 20260507093512 | 12 | 0 | 1.6 | 3.2 | 0.00 | 0.00 | 0.00 | 92 | 1017.4 |
| 20260507093031 | 12 | 93 | 1.6 | 3.2 | 0.00 | 0.00 | 0.00 | 92 | 1017.4 |
| 20260507092514 | 12 | 119 | 0.0 | 4.8 | 0.00 | 0.00 | 0.00 | 92 | 1017.4 |
| 20260507092013 | 12 | 0 | 0.0 | 4.8 | 0.00 | 0.00 | 0.00 | 92 | 1017.5 |
| 20260507091537 | 12 | 111 | 1.6 | 4.8 | 0.00 | 0.00 | 0.00 | 92 | 1017.5 |
| 20260507091013 | 12 | 146 | 1.6 | 3.2 | 0.00 | 0.00 | 0.00 | 92 | 1017.6 |
| 20260507090515 | 12 | 111 | 0.0 | 3.2 | 0.00 | 0.00 | 0.00 | 91 | 1017.6 |
| 20260507090031 | 12 | 137 | 0.0 | 3.2 | 0.00 | 0.00 | 0.00 | 91 | 1017.8 |
| 20260507085514 | 12 | 137 | 1.6 | 6.4 | 0.00 | 0.00 | 0.00 | 91 | 1017.7 |
| 20260507085013 | 12 | 131 | 1.6 | 6.4 | 0.00 | 0.00 | 0.00 | 91 | 1017.7 |
| 20260507084544 | 12 | 133 | 3.2 | 4.8 | 0.00 | 0.00 | 0.00 | 90 | 1017.8 |
| 20260507084016 | 13 | 131 | 3.2 | 4.8 | 0.00 | 0.00 | 0.00 | 90 | 1017.8 |
| 20260507083514 | 13 | 132 | 0.0 | 3.2 | 0.00 | 0.00 | 0.00 | 91 | 1017.8 |
| 20260507083030 | 13 | 9 | 0.0 | 3.2 | 0.00 | 0.00 | 0.00 | 91 | 1017.9 |
| 20260507082514 | 13 | 38 | 1.6 | 3.2 | 0.00 | 0.00 | 0.00 | 90 | 1018.0 |
| 20260507082013 | 13 | 26 | 0.0 | 3.2 | 0.00 | 0.00 | 0.00 | 90 | 1017.9 |
| 20260507081532 | 13 | 309 | 0.0 | 1.6 | 0.00 | 0.00 | 0.00 | 90 | 1017.9 |
| 20260507081017 | 13 | 0 | 0.0 | 3.2 | 0.00 | 0.00 | 0.00 | 91 | 1018.0 |
| 20260507080515 | 13 | 0 | 0.0 | 3.2 | 0.00 | 0.00 | 0.00 | 90 | 1018.1 |
| 20260507080032 | 13 | 9 | 0.0 | 3.2 | 0.00 | 0.00 | 0.00 | 90 | 1018.1 |
| 20260507075515 | 13 | 0 | 0.0 | 3.2 | 0.00 | 0.00 | 0.00 | 90 | 1018.2 |
| 20260507075019 | 13 | 334 | 0.0 | 3.2 | 0.00 | 0.00 | 0.00 | 90 | 1018.1 |
| 20260507074531 | 13 | 67 | 0.0 | 3.2 | 0.00 | 0.00 | 0.00 | 90 | 1018.2 |
| 20260507074014 | 13 | 34 | 0.0 | 3.2 | 0.00 | 0.00 | 0.00 | 90 | 1018.1 |
| 20260507073516 | 13 | 51 | 0.0 | 3.2 | 0.00 | 0.00 | 0.00 | 90 | 1018.2 |
| 20260507073029 | 13 | 334 | 0.0 | 3.2 | 0.00 | 0.00 | 0.00 | 90 | 1018.1 |
| 20260507072515 | 13 | 67 | 1.6 | 3.2 | 0.00 | 0.00 | 0.00 | 90 | 1018.1 |
| 20260507072015 | 13 | 325 | 0.0 | 3.2 | 0.00 | 0.00 | 0.00 | 90 | 1018.2 |
| 20260507071535 | 13 | 34 | 1.6 | 3.2 | 0.00 | 0.00 | 0.00 | 90 | 1018.2 |
| 20260507071016 | 13 | 9 | 0.0 | 3.2 | 0.00 | 0.00 | 0.00 | 90 | 1018.1 |
| 20260507070514 | 13 | 9 | 0.0 | 3.2 | 0.00 | 0.00 | 0.00 | 90 | 1018.2 |
| 20260507070030 | 13 | 108 | 0.0 | 3.2 | 0.00 | 0.00 | 0.00 | 91 | 1018.3 |
| 20260507065515 | 13 | 0 | 0.0 | 3.2 | 0.00 | 0.00 | 0.00 | 91 | 1018.3 |
| 20260507065016 | 13 | 0 | 0.0 | 3.2 | 0.00 | 0.00 | 0.00 | 91 | 1018.3 |
| 20260507064533 | 13 | 0 | 0.0 | 1.6 | 0.00 | 0.00 | 0.00 | 91 | 1018.4 |
| 20260507064015 | 13 | 0 | 0.0 | 1.6 | 0.00 | 0.00 | 0.00 | 91 | 1018.4 |
| 20260507063516 | 13 | 0 | 0.0 | 3.2 | 0.00 | 0.00 | 0.00 | 92 | 1018.4 |
| 20260507063030 | 13 | 0 | 0.0 | 3.2 | 0.00 | 0.00 | 0.00 | 91 | 1018.4 |
| 20260507062514 | 13 | 319 | 1.6 | 3.2 | 0.00 | 0.00 | 0.00 | 91 | 1018.4 |
| 20260507062013 | 13 | 247 | 0.0 | 3.2 | 0.00 | 0.00 | 0.00 | 91 | 1018.5 |
| 20260507061536 | 13 | 221 | 0.0 | 3.2 | 0.00 | 0.00 | 0.00 | 91 | 1018.3 |
| 20260507061014 | 13 | 221 | 0.0 | 4.8 | 0.00 | 0.00 | 0.00 | 91 | 1018.4 |
| 20260507060514 | 14 | 298 | 1.6 | 4.8 | 0.00 | 0.00 | 0.00 | 91 | 1018.3 |
| 20260507060036 | 14 | 321 | 1.6 | 4.8 | 0.00 | 0.00 | 0.00 | 91 | 1018.4 |
| 20260507055516 | 14 | 291 | 0.0 | 4.8 | 0.00 | 0.00 | 0.00 | 91 | 1018.4 |
| 20260507055015 | 14 | 282 | 1.6 | 4.8 | 0.00 | 0.00 | 0.00 | 90 | 1018.4 |
| 20260507054537 | 14 | 330 | 1.6 | 4.8 | 0.00 | 0.00 | 0.00 | 90 | 1018.3 |
| 20260507054015 | 14 | 325 | 3.2 | 6.4 | 0.00 | 0.00 | 0.00 | 90 | 1018.3 |
| 20260507053517 | 14 | 295 | 1.6 | 6.4 | 0.00 | 0.00 | 0.00 | 90 | 1018.3 |
| 20260507053032 | 14 | 316 | 3.2 | 6.4 | 0.00 | 0.00 | 0.00 | 89 | 1018.3 |
| 20260507052515 | 14 | 325 | 1.6 | 4.8 | 0.00 | 0.00 | 0.00 | 89 | 1018.3 |
| 20260507052014 | 14 | 325 | 1.6 | 4.8 | 0.00 | 0.00 | 0.00 | 89 | 1018.3 |
| 20260507051528 | 14 | 325 | 1.6 | 4.8 | 0.00 | 0.00 | 0.00 | 89 | 1018.3 |
| 20260507051018 | 14 | 9 | 1.6 | 4.8 | 0.00 | 0.00 | 0.00 | 88 | 1018.3 |
| 20260507050514 | 14 | 9 | 1.6 | 4.8 | 0.00 | 0.00 | 0.00 | 88 | 1018.3 |
| 20260507050049 | 14 | 9 | 1.6 | 4.8 | 0.00 | 0.00 | 0.00 | 88 | 1018.2 |
| 20260507045515 | 14 | 312 | 1.6 | 4.8 | 0.00 | 0.00 | 0.00 | 89 | 1018.3 |
| 20260507045015 | 15 | 319 | 1.6 | 4.8 | 0.00 | 0.00 | 0.00 | 88 | 1018.3 |
| 20260507044531 | 15 | 313 | 1.6 | 4.8 | 0.00 | 0.00 | 0.00 | 88 | 1018.3 |
| 20260507044014 | 15 | 291 | 1.6 | 8.0 | 0.00 | 0.00 | 0.00 | 88 | 1018.3 |
| 20260507043514 | 15 | 313 | 3.2 | 8.0 | 0.00 | 0.00 | 0.00 | 88 | 1018.3 |
| 20260507043030 | 15 | 291 | 3.2 | 8.0 | 0.00 | 0.00 | 0.00 | 88 | 1018.2 |
| 20260507042514 | 15 | 298 | 3.2 | 6.4 | 0.00 | 0.00 | 0.00 | 88 | 1018.0 |
| 20260507042015 | 15 | 309 | 1.6 | 6.4 | 0.00 | 0.00 | 0.00 | 87 | 1018.0 |
| 20260507041530 | 15 | 309 | 3.2 | 9.7 | 0.00 | 0.00 | 0.00 | 87 | 1017.9 |
| 20260507041014 | 15 | 298 | 3.2 | 9.7 | 0.00 | 0.00 | 0.00 | 87 | 1018.0 |
| 20260507040514 | 15 | 286 | 3.2 | 9.7 | 0.00 | 0.00 | 0.00 | 87 | 1018.0 |
| 20260507040028 | 15 | 291 | 3.2 | 8.0 | 0.00 | 0.00 | 0.00 | 87 | 1018.0 |
| 20260507035514 | 15 | 340 | 3.2 | 11.3 | 0.00 | 0.00 | 0.00 | 87 | 1017.9 |
| 20260507035015 | 15 | 301 | 3.2 | 11.3 | 0.00 | 0.00 | 0.00 | 87 | 1017.8 |
| 20260507034535 | 15 | 302 | 4.8 | 11.3 | 0.00 | 0.00 | 0.00 | 87 | 1017.7 |
| 20260507034018 | 15 | 302 | 3.2 | 11.3 | 0.00 | 0.00 | 0.00 | 86 | 1017.8 |
| 20260507033514 | 15 | 325 | 3.2 | 11.3 | 0.00 | 0.00 | 0.00 | 86 | 1017.8 |
| 20260507033038 | 15 | 316 | 3.2 | 11.3 | 0.00 | 0.00 | 0.00 | 86 | 1017.7 |
| 20260507032516 | 15 | 298 | 3.2 | 11.3 | 0.00 | 0.00 | 0.00 | 86 | 1017.6 |
| 20260507032016 | 15 | 288 | 3.2 | 8.0 | 0.00 | 0.00 | 0.00 | 85 | 1017.6 |
| 20260507031532 | 15 | 316 | 3.2 | 11.3 | 0.00 | 0.00 | 0.00 | 85 | 1017.5 |
| 20260507031014 | 16 | 277 | 3.2 | 11.3 | 0.00 | 0.00 | 0.00 | 84 | 1017.5 |
| 20260507030513 | 16 | 294 | 3.2 | 12.9 | 0.00 | 0.00 | 0.00 | 84 | 1017.5 |
| 20260507030036 | 16 | 300 | 4.8 | 14.5 | 0.00 | 0.00 | 0.00 | 83 | 1017.4 |
| 20260507025514 | 16 | 313 | 4.8 | 14.5 | 0.00 | 0.00 | 0.00 | 82 | 1017.4 |
| 20260507025017 | 16 | 277 | 4.8 | 14.5 | 0.00 | 0.00 | 0.00 | 82 | 1017.5 |
| 20260507024535 | 16 | 291 | 6.4 | 14.5 | 0.00 | 0.00 | 0.00 | 80 | 1017.3 |
| 20260507024014 | 16 | 282 | 4.8 | 12.9 | 0.00 | 0.00 | 0.00 | 80 | 1017.4 |
| 20260507023514 | 16 | 296 | 4.8 | 12.9 | 0.00 | 0.00 | 0.00 | 79 | 1017.2 |
| 20260507023030 | 16 | 304 | 6.4 | 12.9 | 0.00 | 0.00 | 0.00 | 78 | 1017.3 |
| 20260507022515 | 17 | 316 | 4.8 | 12.9 | 0.00 | 0.00 | 0.00 | 77 | 1017.3 |
| 20260507022015 | 17 | 334 | 6.4 | 12.9 | 0.00 | 0.00 | 0.00 | 75 | 1017.2 |
| 20260507021545 | 17 | 296 | 6.4 | 14.5 | 0.00 | 0.00 | 0.00 | 73 | 1017.4 |
| 20260507021015 | 17 | 287 | 3.2 | 14.5 | 0.00 | 0.00 | 0.00 | 74 | 1017.3 |
| 20260507020515 | 17 | 277 | 4.8 | 12.9 | 0.00 | 0.00 | 0.00 | 74 | 1017.3 |
| 20260507020033 | 17 | 307 | 4.8 | 16.1 | 0.00 | 0.00 | 0.00 | 73 | 1017.3 |
| 20260507015515 | 17 | 323 | 4.8 | 16.1 | 0.00 | 0.00 | 0.00 | 71 | 1017.3 |
| 20260507015015 | 17 | 301 | 8.0 | 17.7 | 0.00 | 0.00 | 0.00 | 73 | 1017.3 |
| 20260507014529 | 17 | 265 | 6.4 | 19.3 | 0.00 | 0.00 | 0.00 | 73 | 1017.4 |
| 20260507014017 | 17 | 317 | 9.7 | 19.3 | 0.00 | 0.00 | 0.00 | 73 | 1017.3 |
| 20260507013514 | 18 | 312 | 8.0 | 19.3 | 0.00 | 0.00 | 0.00 | 73 | 1017.2 |
| 20260507013034 | 18 | 273 | 11.3 | 19.3 | 0.00 | 0.00 | 0.00 | 74 | 1017.3 |
| 20260507012517 | 18 | 334 | 9.7 | 19.3 | 0.00 | 0.00 | 0.00 | 74 | 1017.3 |
| 20260507012015 | 18 | 303 | 8.0 | 19.3 | 0.00 | 0.00 | 0.00 | 72 | 1017.3 |
| 20260507011532 | 18 | 315 | 6.4 | 19.3 | 0.00 | 0.00 | 0.00 | 72 | 1017.2 |
| 20260507011014 | 18 | 340 | 9.7 | 19.3 | 0.00 | 0.00 | 0.00 | 72 | 1017.3 |
| 20260507010515 | 18 | 275 | 8.0 | 19.3 | 0.00 | 0.00 | 0.00 | 73 | 1017.2 |
| 20260507010040 | 18 | 317 | 9.7 | 19.3 | 0.00 | 0.00 | 0.00 | 72 | 1017.2 |
| 20260507005515 | 18 | 296 | 8.0 | 22.5 | 0.00 | 0.00 | 0.00 | 72 | 1017.1 |
| 20260507005021 | 19 | 275 | 9.7 | 24.1 | 0.00 | 0.00 | 0.00 | 70 | 1017.2 |
| 20260507004529 | 19 | 311 | 9.7 | 24.1 | 0.00 | 0.00 | 0.00 | 71 | 1017.2 |
| 20260507004015 | 19 | 313 | 9.7 | 24.1 | 0.00 | 0.00 | 0.00 | 70 | 1017.1 |
| 20260507003515 | 18 | 291 | 9.7 | 24.1 | 0.00 | 0.00 | 0.00 | 72 | 1017.3 |
| 20260507003029 | 19 | 296 | 9.7 | 24.1 | 0.00 | 0.00 | 0.00 | 69 | 1017.1 |
| 20260507002513 | 19 | 304 | 9.7 | 20.9 | 0.00 | 0.00 | 0.00 | 68 | 1017.1 |
| 20260507002015 | 19 | 0 | 8.0 | 24.1 | 0.00 | 0.00 | 0.00 | 68 | 1016.9 |
| 20260507001533 | 19 | 294 | 9.7 | 24.1 | 0.00 | 0.00 | 0.00 | 67 | 1017.0 |
| 20260507001015 | 19 | 252 | 9.7 | 19.3 | 0.00 | 0.00 | 0.00 | 68 | 1017.0 |
| 20260507000522 | 19 | 291 | 11.3 | 24.1 | 0.00 | 0.00 | 0.00 | 68 | 1016.8 |
| 20260507000034 | 20 | 270 | 12.9 | 24.1 | 0.00 | 0.00 | 0.00 | 67 | 1016.7 |
| 20260506235514 | 20 | 268 | 11.3 | 22.5 | 0.00 | 0.00 | 0.00 | 66 | 1016.8 |
| 20260506235020 | 19 | 259 | 11.3 | 22.5 | 0.00 | 0.00 | 0.00 | 65 | 1016.8 |
| 20260506234534 | 20 | 336 | 11.3 | 27.4 | 0.00 | 0.00 | 0.00 | 64 | 1016.7 |
| 20260506234014 | 20 | 268 | 8.0 | 27.4 | 0.00 | 0.00 | 0.00 | 66 | 1016.7 |
| 20260506233514 | 20 | 282 | 11.3 | 24.1 | 0.00 | 0.00 | 0.00 | 66 | 1016.6 |
| 20260506233030 | 20 | 286 | 11.3 | 24.1 | 0.00 | 0.00 | 0.00 | 63 | 1016.7 |
| 20260506232515 | 20 | 245 | 11.3 | 20.9 | 0.00 | 0.00 | 0.00 | 64 | 1016.8 |
| 20260506232014 | 20 | 284 | 11.3 | 22.5 | 0.00 | 0.00 | 0.00 | 66 | 1016.8 |
| 20260506231529 | 20 | 265 | 11.3 | 22.5 | 0.00 | 0.00 | 0.00 | 68 | 1016.7 |
| 20260506231014 | 20 | 279 | 11.3 | 20.9 | 0.00 | 0.00 | 0.00 | 68 | 1017.1 |
| 20260506230514 | 20 | 284 | 9.7 | 22.5 | 0.00 | 0.00 | 0.00 | 68 | 1017.0 |
| 20260506230033 | 20 | 312 | 11.3 | 24.1 | 0.00 | 0.00 | 0.00 | 68 | 1017.0 |
| 20260506225518 | 20 | 323 | 11.3 | 24.1 | 0.00 | 0.00 | 0.00 | 68 | 1017.0 |
| 20260506225014 | 20 | 319 | 11.3 | 20.9 | 0.00 | 0.00 | 0.00 | 68 | 1017.0 |
| 20260506224530 | 20 | 286 | 9.7 | 24.1 | 0.00 | 0.00 | 0.00 | 69 | 1017.1 |
| 20260506224016 | 20 | 287 | 9.7 | 25.7 | 0.00 | 0.00 | 0.00 | 68 | 1017.1 |
| 20260506223516 | 20 | 293 | 12.9 | 25.7 | 0.00 | 0.00 | 0.00 | 68 | 1017.2 |
| 20260506223027 | 20 | 325 | 11.3 | 22.5 | 0.00 | 0.00 | 0.00 | 69 | 1017.2 |
| 20260506222514 | 20 | 280 | 12.9 | 22.5 | 0.00 | 0.00 | 0.00 | 67 | 1017.3 |
| 20260506222016 | 20 | 15 | 9.7 | 24.1 | 0.00 | 0.00 | 0.00 | 66 | 1017.3 |
| 20260506221530 | 20 | 297 | 11.3 | 25.7 | 0.00 | 0.00 | 0.00 | 68 | 1017.3 |
| 20260506221012 | 20 | 296 | 14.5 | 25.7 | 0.00 | 0.00 | 0.00 | 67 | 1017.3 |
| 20260506220514 | 20 | 284 | 14.5 | 25.7 | 0.00 | 0.00 | 0.00 | 67 | 1017.3 |
| 20260506220035 | 20 | 312 | 12.9 | 25.7 | 0.00 | 0.00 | 0.00 | 67 | 1017.5 |
| 20260506215515 | 20 | 301 | 11.3 | 24.1 | 0.00 | 0.00 | 0.00 | 68 | 1017.4 |
| 20260506215014 | 20 | 238 | 11.3 | 27.4 | 0.00 | 0.00 | 0.00 | 67 | 1017.4 |
| 20260506214528 | 20 | 293 | 14.5 | 27.4 | 0.00 | 0.00 | 0.00 | 67 | 1017.6 |
| 20260506214015 | 21 | 287 | 11.3 | 24.1 | 0.00 | 0.00 | 0.00 | 65 | 1017.5 |
| 20260506213514 | 20 | 280 | 11.3 | 25.7 | 0.00 | 0.00 | 0.00 | 67 | 1017.5 |
| 20260506213031 | 20 | 254 | 12.9 | 29.0 | 0.00 | 0.00 | 0.00 | 66 | 1017.5 |
| 20260506212514 | 21 | 347 | 12.9 | 29.0 | 0.00 | 0.00 | 0.00 | 65 | 1017.5 |
| 20260506212018 | 20 | 249 | 14.5 | 29.0 | 0.00 | 0.00 | 0.00 | 66 | 1017.4 |
| 20260506211530 | 21 | 271 | 14.5 | 29.0 | 0.00 | 0.00 | 0.00 | 65 | 1017.5 |
| 20260506211015 | 20 | 265 | 14.5 | 29.0 | 0.00 | 0.00 | 0.00 | 68 | 1017.5 |
| 20260506210513 | 20 | 307 | 12.9 | 25.7 | 0.00 | 0.00 | 0.00 | 67 | 1017.6 |
| 20260506210035 | 20 | 330 | 11.3 | 25.7 | 0.00 | 0.00 | 0.00 | 66 | 1017.6 |
| 20260506205513 | 20 | 306 | 12.9 | 29.0 | 0.00 | 0.00 | 0.00 | 66 | 1017.5 |
| 20260506205011 | 20 | 329 | 12.9 | 29.0 | 0.00 | 0.00 | 0.00 | 67 | 1017.7 |
| 20260506204545 | 20 | 316 | 11.3 | 29.0 | 0.00 | 0.00 | 0.00 | 66 | 1017.7 |
| 20260506204016 | 21 | 286 | 12.9 | 25.7 | 0.00 | 0.00 | 0.00 | 65 | 1017.7 |
| 20260506203515 | 21 | 298 | 12.9 | 30.6 | 0.00 | 0.00 | 0.00 | 65 | 1017.6 |
| 20260506203031 | 20 | 287 | 14.5 | 30.6 | 0.00 | 0.00 | 0.00 | 66 | 1017.7 |
| 20260506202513 | 20 | 337 | 12.9 | 25.7 | 0.00 | 0.00 | 0.00 | 65 | 1017.7 |
| 20260506202012 | 20 | 317 | 14.5 | 27.4 | 0.00 | 0.00 | 0.00 | 65 | 1017.8 |
| 20260506201534 | 21 | 280 | 11.3 | 27.4 | 0.00 | 0.00 | 0.00 | 65 | 1017.8 |
| 20260506201014 | 20 | 288 | 11.3 | 25.7 | 0.00 | 0.00 | 0.00 | 66 | 1017.8 |
| 20260506200516 | 21 | 298 | 14.5 | 25.7 | 0.00 | 0.00 | 0.00 | 64 | 1017.8 |
| 20260506200028 | 21 | 297 | 9.7 | 25.7 | 0.00 | 0.00 | 0.00 | 64 | 1017.8 |
| 20260506195514 | 21 | 245 | 9.7 | 22.5 | 0.00 | 0.00 | 0.00 | 65 | 1017.9 |
| 20260506195019 | 21 | 254 | 9.7 | 22.5 | 0.00 | 0.00 | 0.00 | 64 | 1018.0 |
| 20260506194533 | 21 | 282 | 9.7 | 22.5 | 0.00 | 0.00 | 0.00 | 65 | 1018.0 |
| 20260506194014 | 21 | 284 | 11.3 | 24.1 | 0.00 | 0.00 | 0.00 | 64 | 1018.1 |
| 20260506193513 | 21 | 311 | 11.3 | 24.1 | 0.00 | 0.00 | 0.00 | 64 | 1018.2 |
| 20260506193028 | 21 | 327 | 12.9 | 24.1 | 0.00 | 0.00 | 0.00 | 63 | 1018.1 |
| 20260506192513 | 21 | 284 | 11.3 | 25.7 | 0.00 | 0.00 | 0.00 | 64 | 1018.1 |
| 20260506192014 | 20 | 280 | 11.3 | 25.7 | 0.00 | 0.00 | 0.00 | 65 | 1018.2 |
| 20260506191528 | 21 | 291 | 8.0 | 19.3 | 0.00 | 0.00 | 0.00 | 64 | 1018.2 |
| 20260506191015 | 21 | 312 | 6.4 | 19.3 | 0.00 | 0.00 | 0.00 | 63 | 1018.2 |
| 20260506190515 | 21 | 312 | 8.0 | 19.3 | 0.00 | 0.00 | 0.00 | 64 | 1018.3 |
| 20260506190028 | 20 | 309 | 9.7 | 19.3 | 0.00 | 0.00 | 0.00 | 64 | 1018.3 |
| 20260506185515 | 21 | 265 | 8.0 | 19.3 | 0.00 | 0.00 | 0.00 | 65 | 1018.4 |
| 20260506185014 | 20 | 257 | 9.7 | 20.9 | 0.00 | 0.00 | 0.00 | 64 | 1018.5 |
| 20260506184531 | 20 | 0 | 9.7 | 20.9 | 0.00 | 0.00 | 0.00 | 65 | 1018.5 |
| 20260506184011 | 20 | 252 | 8.0 | 22.5 | 0.00 | 0.00 | 0.00 | 65 | 1018.5 |